カタログに戻る

SL-8 R/B

運用中PO
NORAD 22488·ROCKET BODY·🇷🇺 Russia

打ち上げ Feb 9, 1993 から Plesetsk Cosmodrome

Loading…

次のパス (今後24時間)

TLE

最新Source: Space-Track

元期: Sep 14, 2026, 12:44 UTC

1 22488U 93008B   26257.53056667 -.00000063  00000-0 -78187-4 0  9990
2 22488  82.9378  85.4180 0026367 120.3006 257.3896 13.78013983688909

AllMySatでSL-8 R/Bをリアルタイム追跡

Download on the App Store